Flag for U.S.A. Weather for the Past 2 Weeks in Avalon (Santa Catalina Island), California, U.S.A.

Now
57 °F

Clear.


Feels Like: 55 °F
Forecast: 55 / 69 °F
Wind: 8 mph from North

Location: Catalina Airport

Current Time: Feb 6, 2016 at 4:27:44 AM

Latest Report: Feb 6, 2016 at 3:51 AM


Visibility: 10 mi

Pressure: 30.25 "Hg

Humidity: 23%

Dew point: 19 °F

Location of Avalon (Santa Catalina Island)Location

Historic Weather in Avalon (Santa Catalina Island) — Graph

°F

Avalon (Santa Catalina Island) Temperature Yesterday

Maximum temperature yesterday: 66 °F (at 1:51 PM)
Minimum temperature yesterday: 54 °F (at 2:51 AM)
Average temperature yesterday: 60 °F

High & Low Weather Summary for the Past Weeks

 TemperatureHumidityPressure
High66 °F (Jan 29, 10:51 AM)100% (Jan 22, 9:51 PM)30.37 "Hg (Jan 22, 9:51 PM)
Low43 °F (Feb 2, 5:51 AM)10% (Jan 27, 5:51 AM)29.64 "Hg (Jan 31, 12:54 PM)
Average54 °F57%30.12 "Hg
* Reported Jan 22 2:51 AM — Feb 6 2:51 AM, Avalon (Santa Catalina Island), Weather by CustomWeather, © 2016

Note: Actual official high and low records may vary slightly from our data, if they occured in-between our weather recording intervals... More about our weather records

Advertising

Avalon (Santa Catalina Island) Weather History for the Previous 24 Hours

 ConditionsComfort  
Time TempWeatherWind HumidityBarometerVisibility
2:51 AM
Sat, Feb 6
56 °FClear.7 mph29%30.25 "Hg10 mi
1:51 AM57 °FClear.9 mph25%30.26 "Hg10 mi
12:51 AM58 °FClear.10 mph25%30.26 "Hg10 mi
11:51 PM
Fri, Feb 5
58 °FClear.9 mph26%30.27 "Hg10 mi
10:51 PM59 °FClear.10 mph22%30.27 "Hg10 mi
9:51 PM60 °FClear.10 mph21%30.26 "Hg10 mi
8:51 PM61 °FClear.13 mph23%30.26 "Hg10 mi
7:51 PM62 °FClear.8 mph20%30.27 "Hg10 mi
6:51 PM62 °FClear.7 mph19%30.27 "Hg10 mi
5:51 PM63 °FClear.12 mph18%30.26 "Hg10 mi
4:51 PM63 °FSunny.8 mph20%30.26 "Hg10 mi
3:51 PM64 °FSunny.9 mph19%30.25 "Hg10 mi
2:51 PM65 °FSunny.10 mph17%30.25 "Hg10 mi
1:51 PM66 °FSunny.8 mph19%30.25 "Hg10 mi
12:51 PM65 °FSunny.8 mph21%30.28 "Hg10 mi
11:51 AM64 °FSunny.9 mph17%30.30 "Hg10 mi
10:51 AM63 °FSunny.12 mph16%30.31 "Hg10 mi
9:51 AM62 °FSunny.10 mph17%30.32 "Hg10 mi
8:51 AM60 °FSunny.6 mph20%30.31 "Hg10 mi
7:51 AM57 °FSunny.7 mph24%30.31 "Hg10 mi
6:51 AM58 °FSunny.6 mph18%30.30 "Hg10 mi
5:51 AM58 °FClear.No wind19%30.28 "Hg10 mi
4:51 AM55 °FClear.7 mph23%30.27 "Hg10 mi
Weather by CustomWeather, © 2016

See weather overviewHow to use our weather pages